Simultaneous Nadir Overpasses (SNOs) Predictions

Prediction of SNOs between GOES-17 and NOAA-19 Satellite Orbit:

Table of predicted SNOs for the next 14.0 days since TLE Epoch: 8/29/2020
Index Date Time (GOES-17) GOES-17 Lat,Lon NOAA-19 Lat,Lon Distance(km) Time Diff (sec)
1 08/30/2020 02:58:57 -0.02,-137.19 0.95,-132.94 484.83 80
2 08/31/2020 15:28:57 0.01,-137.19 0.86,-140.75 407.41 80
3 09/01/2020 15:17:15 0.00,-137.18 0.18,-137.90 81.85 80
4 09/02/2020 15:08:14 -0.00,-137.18 -0.51,-135.05 243.71 80
5 09/05/2020 03:26:33 0.01,-137.15 -0.64,-140.01 325.51 80
6 09/06/2020 03:17:31 0.01,-137.14 0.03,-137.15 2.73 80
7 09/07/2020 03:05:49 0.00,-137.13 0.64,-134.28 324.64 80
8 09/09/2020 15:24:04 -0.01,-137.10 0.49,-139.23 243.45 80
9 09/10/2020 15:15:02 -0.01,-137.08 -0.15,-136.37 80.95 80
10 09/11/2020 15:03:20 -0.01,-137.06 -0.84,-133.52 405.00 80
